CW2640 Weather Reports


Display with metric or nautical units.
time (UTC)temp
F
wind
direction
speed
MPH
gust
MPH
rain 1hr
in
rain 24hr
in
rain mn
in
humidity
%
barometer
mb
20260504201111 79 103 0.0 0.0 0.00 0.00 0.00 41 1014.4
20260504194107 77 102 0.0 0.0 0.00 0.00 0.00 45 1014.9
20260504191103 78 109 0.0 0.0 0.00 0.00 0.00 47 1015.0
20260504184103 77 105 0.0 0.0 0.00 0.00 0.00 54 1015.2
20260504181059 77 101 0.0 0.0 0.00 0.00 0.00 51 1015.8
20260504174056 75 97 0.0 0.0 0.00 0.00 0.00 51 1016.4
20260504171055 76 88 0.0 0.0 0.00 0.00 0.00 50 1016.5
20260504151044 69 86 0.0 0.0 0.00 0.00 0.00 64 1017.8
20260504141043 63 80 0.0 0.0 0.00 0.00 0.00 71 1018.1
20260504081019 46 152 0.0 0.0 0.00 0.00 0.00 99 1017.0
20260504044003 49 187 0.0 0.0 0.00 0.00 0.00 97 1018.7
20260504041000 50 198 0.0 0.0 0.00 0.00 0.00 95 1018.9
20260504033959 51 206 0.0 0.0 0.00 0.00 0.00 92 1018.7
20260504030959 52 210 0.0 0.0 0.00 0.00 0.00 90 1019.0
20260504023958 53 212 0.0 0.0 0.00 0.00 0.00 87 1019.0
20260504020954 55 212 0.0 0.0 0.00 0.00 0.00 85 1018.7
20260504013950 56 216 0.0 0.0 0.00 0.00 0.00 81 1018.5
20260504010949 58 224 0.0 0.0 0.00 0.00 0.00 74 1018.0
20260504003948 61 233 0.0 0.0 0.00 0.00 0.00 63 1018.1
20260504000947 64 241 0.0 0.0 0.00 0.00 0.00 53 1017.9
20260503233944 67 248 0.0 0.0 0.00 0.00 0.00 45 1017.9
20260503230942 68 251 0.0 0.0 0.00 0.00 0.00 45 1018.0
20260503223941 69 252 0.0 0.0 0.00 0.00 0.00 44 1018.0
20260503220937 70 245 0.0 0.0 0.00 0.00 0.00 42 1018.2
20260503213937 71 234 0.0 0.0 0.00 0.00 0.00 43 1018.6
20260503210936 71 152 0.0 0.0 0.00 0.00 0.00 40 1018.7
20260503203933 72 140 0.0 0.0 0.00 0.00 0.00 37 1019.3